Location: Newark
(13.6797°N, 8.5297°E)
Time: 16:55:35
(UTC+00:00)

Courier 1B Rocket - Pass Details

Date: 23 January 2020
Orbit: 920 x 1202 km, 28.2° (Epoch: 22 February)

Event Time Altitude Azimuth Distance (km) Brightness Sun altitude
Rises 09:00:39 0° 237° (WSW) 4,056 8.1 39.1°
Reaches altitude 10° 09:03:33 10° 235° (SW) 3,069 7.6 39.6°
Maximum altitude 09:11:08 71° 152° (SSE) 1,171 6.7 41.0°
Drops below altitude 10° 09:18:12 10° 69° (ENE) 2,877 7.9 42.3°
Sets 09:20:51 0° 67° (ENE) 3,789 8.3 42.7°
